Jonesboro, AR

11:48 PM CDT on June 26, 2017 (GMT -0500)
Jonesboro Municipal

Weather History for KJBR - January, 2014

Change the Weather History Date:

Thursday, January 2, 2014

  Actual Average Record
Temperature  
Mean Temperature 34 °F 37 °F  
Max Temperature 47 °F 46 °F 69 °F (2004)
Min Temperature 20 °F 29 °F 3 °F (1928)
Degree Days  
Heating Degree Days 31 28  
Month to date heating degree days 59 56  
Since 1 July heating degree days 1619 1498  
Cooling Degree Days 0 0  
Month to date cooling degree days 0 0  
Year to date cooling degree days 0 0  
Moisture  
Dew Point 22 °F    
Average Humidity 65    
Maximum Humidity 83    
Minimum Humidity 47    
Precipitation  
Precipitation 0.02 in 0.10 in 4.10 in (1966)
Month to date precipitation 0.02 0.21  
Year to date precipitation 0.02 0.21  
Snow  
Snow T in - - ()
Month to date snowfall T  
Snow Depth 0.00 in    
Sea Level Pressure  
Sea Level Pressure 30.20 in    
Wind  
Wind Speed 11 mph (NNW)    
Max Wind Speed 22 mph    
Max Gust Speed 30 mph    
Visibility 9 miles    
Events Rain , Snow    
T = Trace of Precipitation, MM = Missing Value Source: NWS Daily Summary

Daily Weather History Graph

Daily Weather History Graph

Search for Another Location

Airport or City:

Trip Planner

Search our weather history database for the weather conditions in past years. The results will help you decide how hot, cold, wet, or windy it might be!

Date:

Astronomy

Jan. 02, 2014 Rise Set
Actual Time 7:12 AM CST 5:00 PM CST
Civil Twilight 6:44 AM CST 5:29 PM CST
Nautical Twilight 6:12 AM CST 6:00 PM CST
Astronomical Twilight 5:41 AM CST 6:31 PM CST
Moon 7:58 AM CST (1/2) 6:53 PM CST (1/2)
Length of Visible Light 10h 44m
Length of Day
9h 47m
Waxing Crescent, 3% of the Moon is Illuminated
Jan 2
Waxing Crescent
Jan 7
First Quarter
Jan 15
Full
Jan 23
Last Quarter
Jan 30
New

Hourly Weather History & Observations

Time (CST) Temp. Windchill Dew Point Humidity Pressure Visibility Wind Dir Wind Speed Gust Speed Precip Events Conditions
12:53 AM 46.0 °F - 39.0 °F 76% 29.93 in 10.0 mi Calm Calm - N/A   Overcast
1:53 AM 44.1 °F 41.5 °F 39.0 °F 82% 29.94 in 10.0 mi West 4.6 mph - N/A   Overcast
2:53 AM 45.0 °F 40.1 °F 37.9 °F 76% 29.94 in 10.0 mi NNW 9.2 mph - N/A   Overcast
3:36 AM 42.8 °F 36.2 °F 37.4 °F 81% 29.98 in 10.0 mi NNW 12.7 mph 21.9 mph N/A   Overcast
3:53 AM 37.0 °F 26.7 °F 30.9 °F 79% 30.00 in 10.0 mi NW 19.6 mph 29.9 mph 0.00 in Rain Light Rain
4:24 AM 33.8 °F 23.5 °F 30.2 °F 87% 30.02 in 3.0 mi NW 16.1 mph 26.5 mph 0.01 in Snow Light Snow
4:53 AM 33.1 °F 22.6 °F 28.9 °F 85% 30.04 in 4.0 mi NW 16.1 mph 23.0 mph 0.02 in Snow Light Snow
5:02 AM 30.2 °F 18.5 °F 28.4 °F 93% 30.04 in 1.8 mi NNW 17.3 mph 26.5 mph 0.00 in Snow Light Snow
5:08 AM 30.2 °F 18.5 °F 28.4 °F 93% 30.04 in 2.0 mi NNW 17.3 mph 24.2 mph 0.00 in Snow Light Snow
5:12 AM 30.2 °F 19.3 °F 28.4 °F 93% 30.05 in 3.0 mi NNW 15.0 mph 24.2 mph 0.00 in Snow Light Snow
5:23 AM 30.2 °F 19.8 °F 26.6 °F 86% 30.06 in 5.0 mi NNW 13.8 mph 26.5 mph 0.00 in Snow Light Snow
5:37 AM 30.2 °F 20.8 °F 26.6 °F 86% 30.07 in 6.0 mi NW 11.5 mph 25.3 mph 0.00 in Snow Light Snow
5:53 AM 30.0 °F 19.5 °F 24.1 °F 79% 30.08 in 10.0 mi NNW 13.8 mph 25.3 mph 0.00 in   Overcast
6:45 AM 26.6 °F 15.2 °F 21.2 °F 80% 30.13 in 10.0 mi NW 13.8 mph 24.2 mph N/A   Overcast
6:53 AM 27.0 °F 14.3 °F 21.0 °F 78% 30.14 in 10.0 mi NW 17.3 mph 28.8 mph N/A   Overcast
7:04 AM 26.6 °F 14.7 °F 19.4 °F 74% 30.14 in 10.0 mi NW 15.0 mph 23.0 mph N/A   Overcast
7:16 AM 26.6 °F 14.7 °F 19.4 °F 74% 30.16 in 10.0 mi NW 15.0 mph 28.8 mph N/A   Mostly Cloudy
7:53 AM 26.1 °F 14.0 °F 18.0 °F 71% 30.19 in 10.0 mi NW 15.0 mph 25.3 mph N/A   Clear
8:53 AM 26.1 °F 14.0 °F 17.1 °F 69% 30.24 in 10.0 mi NNW 15.0 mph 23.0 mph N/A   Clear
9:53 AM 27.0 °F 16.7 °F 18.0 °F 69% 30.27 in 10.0 mi NNW 11.5 mph - N/A   Clear
10:53 AM 28.0 °F 16.5 °F 19.0 °F 69% 30.29 in 10.0 mi NNW 15.0 mph 21.9 mph N/A   Scattered Clouds
11:53 AM 30.0 °F 20.5 °F 19.9 °F 66% 30.28 in 10.0 mi NW 11.5 mph 17.3 mph N/A   Scattered Clouds
12:53 PM 30.9 °F 21.7 °F 18.0 °F 59% 30.28 in 10.0 mi North 11.5 mph - 0.00 in   Partly Cloudy
1:53 PM 32.0 °F 22.1 °F 17.1 °F 54% 30.28 in 10.0 mi NW 13.8 mph 19.6 mph N/A   Partly Cloudy
2:53 PM 33.1 °F 24.4 °F 16.0 °F 50% 30.30 in 10.0 mi NNW 11.5 mph 17.3 mph N/A   Clear
3:53 PM 32.0 °F 22.1 °F 15.1 °F 50% 30.33 in 10.0 mi NNW 13.8 mph 19.6 mph N/A   Clear
4:53 PM 30.0 °F 22.4 °F 14.0 °F 51% 30.34 in 10.0 mi NNW 8.1 mph 17.3 mph N/A   Clear
5:53 PM 28.0 °F 20.8 °F 14.0 °F 56% 30.36 in 10.0 mi NNW 6.9 mph - N/A   Clear
6:53 PM 27.0 °F 20.5 °F 14.0 °F 58% 30.41 in 10.0 mi North 5.8 mph - N/A   Clear
7:53 PM 25.0 °F 15.5 °F 12.0 °F 58% 30.43 in 10.0 mi North 9.2 mph - N/A   Clear
8:53 PM 23.0 °F 17.0 °F 12.0 °F 63% 30.45 in 10.0 mi North 4.6 mph - N/A   Clear
9:53 PM 23.0 °F 13.9 °F 10.9 °F 60% 30.48 in 10.0 mi North 8.1 mph - N/A   Clear
10:53 PM 21.0 °F - 10.9 °F 65% 30.49 in 10.0 mi Calm Calm - N/A   Clear
11:53 PM 19.9 °F 14.9 °F 10.9 °F 68% 30.51 in 10.0 mi NW 3.5 mph - N/A   Clear